www.pogodaiklimat.ru

Погода и климат >> Архив погоды >> Украина >> Очаков


ПОГОДА в Очакове

  • Прогноз погоды в Очакове
  • Монитор погоды в Очакове

АРХИВ ПОГОДЫ в Очакове

Время (UTC), дата Ветер
(напр.,м/с)
 
Видим.   Явления Облачность Т
(С)
Тd
(С)
f
(%)
Тe
(С)
Тes
(С)
Комфортность P
(гПа)
Po
(гПа)
Тmin
(С)
Tmax
(С)
R
(мм)
R24
(мм)
S
(см)
00 11.06 В 3 30 км 10/10 600 м
[Sc]
+21.4 +15.0 67 +25 +25 комфорт 1013.8 1009.6
03 11.06 СВ 4 20 км 9/3 600 м
[Sc Ac trans Ci sp]
+21.0 +15.5 71 +25 +25 комфорт 1013.6 1009.4
06 11.06 С 5 20 км 9/6 600 м
[Sc Ci sp]
+25.4 +16.9 59 +29 +31 душно 1013.8 1009.7 +20.7
09 11.06 В 9 20 км 8/6 600 м
[Sc Ci sp]
+31.1 +19.4 50 +37 +38 очень
душно
1013.3 1009.3
12 11.06 В 9 20 км 9/0
[Ci sp]
+32.8 +15.8 36 +35 +37 душно 1012.5 1008.5
15 11.06 В 6 20 км 4/0
[Ci sp]
+31.9 +12.4 30 +32 +34 жарко 1011.9 1007.9
18 11.06 СВ 2 20 км 8/3 600 м
[Sc Ci sp]
+25.7 +14.3 49 +28 +28 жарко 1012.3 1008.2 +34.1
21 11.06 СВ 5 25 км 4/0
[Ci sp]
+23.6 +13.7 54 +26 +26 жарко 1012.9 1008.8
00 12.06 СВ 2 25 км ясно +18.7 +14.4 76 +20 +20 1011.9 1007.7
03 12.06 СВ 2 20 км 6/0
[Ci sp]
+18.5 +14.3 77 +20 +20 1011.7 1007.5
06 12.06 СВ 5 20 км 6/0
[Ci sp]
+25.0 +14.4 52 +28 +32 жарко 1011.5 1007.4 +18.1
09 12.06 В 6 20 км 4/0
[Ci sp]
+31.4 +14.6 36 +33 +40 жарко 1010.9 1006.9
12 12.06 В 7 20 км 8/0
[Ci sp]
+34.0 +11.8 26 +34 +37 очень
жарко
1010.5 1006.5
15 12.06 В 6 20 км 3/0
[Ci sp]
+32.4 +14.3 33 +34 +35 очень
жарко
1010.0 1006.0
18 12.06 В 3 20 км ясно +26.8 +14.1 46 +29 +29 жарко 1010.5 1006.4 +35.0
21 12.06 С 1 30 км ясно +21.0 +14.9 68 +25 +25 комфорт 1011.9 1007.7
00 13.06 В 3 30 км ясно +19.5 +13.3 67 +21 +21 комфорт 1012.4 1008.2
03 13.06 С 1 20 км ясно +18.8 +12.9 69 +21 +21 комфорт 1012.7 1008.5
06 13.06 В 6 20 км 3/3 600 м
[Sc]
+24.6 +15.3 56 +28 +30 душно 1013.6 1009.5 +18.5
09 13.06 В 8 20 км 10/10 600 м
[Sc]
+26.8 +13.0 42 +28 +28 жарко 1014.3 1010.2
12 13.06 СЗ 2 20 км {ливн. осадки} 10/10 300 м
[Cb calv]
+25.3 +15.8 56 +29 +29 душно 1014.5 1010.4
15 13.06 СЗ 3 20 км в посл. час ливневой дождь 8/8 600 м
[Sc]
+25.2 +16.3 58 +29 +29 душно 1013.1 1009.0
18 13.06 С 2 20 км {ливн. осадки} 6/6 600 м
[Sc]
+24.3 +14.8 55 +27 +27 жарко 1013.4 1009.3 +30.2 0.4
21 13.06 СВ 4 25 км 8/8 600 м
[Sc]
+22.0 +15.5 67 +26 +26 душно 1014.1 1009.9
00 14.06 СВ 3 25 км 4/0
[Ci sp]
+19.4 +13.8 70 +21 +21 комфорт 1014.4 1010.2
03 14.06 С 4 20 км 8/0
[Ci sp]
+19.8 +15.6 77 +22 +22 комфорт 1015.1 1010.9
06 14.06 СВ 5 20 км 9/0
[Ci sp]
+24.9 +17.2 62 +29 +32 душно 1015.5 1011.4 +19.1
09 14.06 В 5 20 км 9/0
[Ci sp]
+29.8 +17.2 47 +34 +42 очень
душно
1016.4 1012.3
12 14.06 ЮВ 4 20 км 9/0
[Ac trans Ci sp]
+28.4 +18.7 56 +34 +41 очень
душно
1016.5 1012.4
15 14.06 В 3 20 км 9/1 600 м
[Sc Ci sp]
+28.8 +19.7 58 +35 +37 очень
душно
1015.3 1011.2
18 14.06 В 2 20 км 9/3 600 м
[Sc Ac trans Ci sp]
+27.6 +18.6 58 +33 +33 очень
душно
1015.4 1011.3 +32.0
21 14.06 В 1 30 км 9/3 600 м
[Sc Ac trans Ci sp]
+24.5 +18.9 71 +29 +29 душно 1016.3 1012.2
00 15.06 В 1 28 км 3/0
[Ci sp]
+20.7 +16.6 77 +25 +25 комфорт 1016.2 1012.0
03 15.06 С 1 20 км 8/0
[Ci sp]
+20.0 +17.0 83 +24 +24 комфорт 1015.3 1011.1
06 15.06 СВ 1 20 км 3/0
[Ci sp]
+26.9 +18.7 61 +32 +41 очень
душно
1015.6 1011.5 +19.6
12 15.06 ЮЗ 2 20 км 6/6 600 м
[Cu hum]
+29.9 +19.0 52 +35 +41 очень
душно
1013.1 1009.1
18 15.06 З 1 20 км 9/0
[Ci sp]
+26.4 +21.8 76 +34 +34 очень
душно
1012.0 1007.9 +31.6
00 16.06 штиль 0 13 км 9/0
[Ci sp]
+19.2 +17.0 87 +21 +21 комфорт 1012.2 1008.0
06 16.06 СВ 3 20 км ясно +27.5 +16.8 52 +31 +38 душно 1012.3 1008.3 +18.8
12 16.06 СВ 5 20 км 4/4 600 м
[Cu med, cong]
+32.0 +12.5 30 +32 +37 жарко 1011.7 1007.7
18 16.06 С 2 20 км 9/3 600 м
[Sc Ci sp]
+27.3 +17.3 54 +31 +31 душно 1011.0 1006.9 +34.2
00 17.06 С 2 25 км ясно +20.5 +16.0 75 +24 +24 комфорт 1012.7 1008.5
06 17.06 В 4 20 км 4/0
[Ci sp]
+25.7 +17.7 61 +30 +35 душно 1013.2 1009.1 +17.9
12 17.06 СВ 4 20 км 9/0
[Ci sp]
+30.3 +12.8 34 +31 +40 жарко 1013.7 1009.6
18 17.06 СВ 2 20 км ясно +25.8 +14.4 49 +28 +28 жарко 1013.3 1009.2 +31.7

 

Местоположение метеостанции Очаков (Николаевская область, Украина): широта 46.63 долгота 31.55 высота над уровнем моря 41 м.

В архиве по умолчанию представлена погода в Очакове за последнюю неделю. Архивные данные за месяц целиком и за предыдущие месяцы, начиная с января 2011 года, Вы можете получить, выбрав интересующий диапазон дат из раскрывающегося списка и нажав кнопку "Ввод!".


*Определитесь, кто Вы:
робот инопланетянин человек

Внимание! Время в таблицах - всемирное. Для получения местного времени необходимо прибавить поправку, которая равна 2 ч.

Смотрите также архив погоды в соседних городах и на ближайших метеорологических станциях:

Погода в Николаеве (Николаевская область, Украина) (54 км)
Погода в Одессе (Одесская область, Украина) (64 км)
Погода в Ильичевске (Одесская область, Украина) (70 км)
Погода в Бехтерах (Херсонская область, Украина) (71 км)
Погода в Сербке (Одесская область, Украина) (75 км)
Погода в Херсоне (Херсонская область, Украина) (78 км)
Погода в Белгород-Днестровском (Одесская область, Украина) (103 км)
Погода в Вознесенске (Николаевская область, Украина) (106 км)
Погода в Баштанке (Николаевская область, Украина) (112 км)
Погода в Раздельной (Одесская область, Украина) (115 км)

Пояснения к столбцам:

Ветер - указаны скорость ветра в м/с - средняя за 10 мин, порывы в срок и между сроками (в фигурных скобках) и направление, откуда дует ветер: С - северный, СВ - северо-восточный, В - восточный, ЮВ - юго-восточный, Ю - южный, ЮЗ - юго-западный, З - западный, СЗ - северо-западный.
Видимость - горизонтальная дальность видимости в метрах или километрах. При видимости от 1 до 10 км при отсутствии осадков обычно наблюдается дымка, при ухудшении видимости до 1 км и менее - туман. В сухую погоду видимость может ухудшаться дымом, пылью или мглою.
Явления - указаны атмосферные явления, наблюдавшиеся в срок или в последний час перед сроком; фигурными скобками обозначены явления, наблюдавшиеся между сроками (за 1-3 часа до срока); квадратными скобками обозначены град или гололедные отложения с указанием их диаметра в мм.
Облачность - указаны через наклонную черту общая и нижняя облачность в баллах и высота нижней границы облаков в метрах; квадратными скобками обозначены формы облаков: Ci - перистые, Cs - перисто-слоистые, Cc - перисто-кучевые, Ac - высококучевые, As - высокослоистые, Sc - слоисто-кучевые, Ns - слоисто-дождевые, Cu - кучевые, Cb - кучево-дождевые. Подробнее классификацию облаков см. в Атласе облаков (PDF).
T - Температура воздуха - температура, измеренная на высоте 2 м над землей.
Td - Температура точки росы - температура, при понижении до которой содержащийся в воздухе водяной пар достигнет насыщения.
f - Относительная влажность воздуха - влажноcть воздуха, измеренная на высоте 2 м над землей.
Te - Эффективная температура - температура, которую ощущает одетый по сезону человек в тени. Характеристика душности погоды. При расчете учитывается влияние влажности воздуха и скорости ветра на теплоощущения человека.
Tes - Эффективная температура на солнце - температура, которую ощущает человек, с поправкой на солнечный нагрев. Характеристика знойности погоды. Зависит от высоты солнца над горизонтом, облачности и скорости ветра. Ночью, в пасмурную погоду, а также при ветре 12 м/с и более поправка равна нулю.
P - Атмосферное давление - приведенное к уровню моря атмосферное давление.
Po - Атмосферное давление - измеренное на уровне метеостанции атмосферное давление.
Tmin - Минимальная температура - минимум температуры воздуха на высоте 2 м над землей.
Tmax - Максимальная температура - максимум температуры воздуха на высоте 2 м над землей.
R - Количество осадков - Количество выпавших осадков за период времени, мм. При наведении курсора мыши на число - период времени, за который выпало указанное количество осадков.
R24 - Количество осадков - Количество выпавших осадков за 24 часа, мм.
S - Снежный покров - Высота снежного покрова, см. При наведении курсора мыши на число - состояние снежного покрова и степень покрытия местности в баллах.